Wilmington, OH

5:14 PM EDT on July 20, 2017 (GMT -0400)
Airborne

Weather History for KILN - December, 2012

Change the Weather History Date:

Sunday, December 9, 2012

  Actual Average (KFFO) Record (KFFO)
Temperature  
Mean Temperature 50 °F -  
Max Temperature 57 °F 41 °F 59 °F (2012)
Min Temperature 42 °F 27 °F 10 °F (2000)
Degree Days  
Heating Degree Days 16    
Moisture  
Dew Point 48 °F    
Average Humidity 94    
Maximum Humidity 100    
Minimum Humidity 87    
Precipitation  
Precipitation 0.26 in - - ()
Sea Level Pressure  
Sea Level Pressure 29.90 in    
Wind  
Wind Speed 10 mph (SE)    
Max Wind Speed 18 mph    
Max Gust Speed 24 mph    
Visibility 7 miles    
Events Rain    
Averages and records for this station are not official NWS values.
T = Trace of Precipitation, MM = Missing Value Source: NWS Daily Summary

Daily Weather History Graph

Daily Weather History Graph

Search for Another Location

Airport or City:

Trip Planner

Search our weather history database for the weather conditions in past years. The results will help you decide how hot, cold, wet, or windy it might be!

Date:

Astronomy

Dec. 09, 2012 Rise Set
Actual Time 7:43 AM EST 5:11 PM EST
Civil Twilight 7:13 AM EST 5:41 PM EST
Nautical Twilight 6:40 AM EST 6:15 PM EST
Astronomical Twilight 6:07 AM EST 6:47 PM EST
Moon 3:16 AM EST (12/9) 2:16 PM EST (12/9)
Length of Visible Light 10h 27m
Length of Day
9h 27m
Waning Crescent, 19% of the Moon is Illuminated
Dec 9
Waning Crescent
Dec 13
New
Dec 20
First Quarter
Dec 28
Full
Jan 4
Last Quarter

Hourly Weather History & Observations

Time (EST) Temp. Windchill Dew Point Humidity Pressure Visibility Wind Dir Wind Speed Gust Speed Precip Events Conditions
12:54 AM 44.1 °F 38.6 °F 42.1 °F 93% 30.06 in 8.0 mi ENE 10.4 mph - N/A   Overcast
1:54 AM 43.0 °F 37.7 °F 41.0 °F 93% 30.07 in 7.0 mi NE 9.2 mph - N/A   Overcast
2:54 AM 43.0 °F 37.2 °F 41.0 °F 93% 30.07 in 6.0 mi ENE 10.4 mph - N/A   Overcast
3:54 AM 43.0 °F 37.2 °F 41.0 °F 93% 30.06 in 8.0 mi ENE 10.4 mph - N/A   Overcast
4:54 AM 43.0 °F 38.8 °F 41.0 °F 93% 30.06 in 8.0 mi ENE 6.9 mph - N/A   Overcast
5:06 AM 42.8 °F 38.0 °F 41.0 °F 93% 30.02 in 8.0 mi East 8.1 mph - N/A   Overcast
5:54 AM 43.0 °F 37.2 °F 39.9 °F 89% 30.06 in 7.0 mi East 10.4 mph 16.1 mph N/A   Overcast
6:12 AM 42.8 °F 37.5 °F 39.2 °F 87% 30.02 in 7.0 mi East 9.2 mph - N/A   Overcast
6:36 AM 42.8 °F 36.6 °F 39.2 °F 87% 30.01 in 7.0 mi ENE 11.5 mph - N/A   Overcast
6:54 AM 42.1 °F 36.1 °F 39.9 °F 92% 30.05 in 7.0 mi East 10.4 mph 18.4 mph N/A   Overcast
7:15 AM 42.8 °F 38.0 °F 39.2 °F 87% 30.01 in 7.0 mi East 8.1 mph 19.6 mph N/A   Overcast
7:54 AM 42.1 °F 39.2 °F 39.9 °F 92% 30.06 in 6.0 mi Variable 4.6 mph 17.3 mph N/A   Overcast
8:54 AM 42.1 °F 36.6 °F 39.9 °F 92% 30.04 in 4.0 mi East 9.2 mph - N/A   Overcast
9:54 AM 43.0 °F 36.4 °F 42.1 °F 97% 30.02 in 4.0 mi East 12.7 mph 19.6 mph N/A   Overcast
10:11 AM 42.8 °F 37.0 °F 42.8 °F 100% 29.97 in 4.0 mi ESE 10.4 mph - N/A   Overcast
10:40 AM 44.6 °F 39.2 °F 42.8 °F 93% 29.96 in 2.5 mi ESE 10.4 mph 17.3 mph 0.00 in Rain Light Rain
10:54 AM 44.1 °F 38.1 °F 43.0 °F 96% 29.99 in 2.0 mi ESE 11.5 mph - 0.00 in   Overcast
11:01 AM 44.6 °F 38.4 °F 44.6 °F 100% 29.95 in 1.5 mi ESE 12.7 mph - N/A   Overcast
11:18 AM 44.6 °F 39.2 °F 44.6 °F 100% 29.95 in 2.0 mi ESE 10.4 mph - N/A   Overcast
11:54 AM 45.0 °F 38.9 °F 45.0 °F 100% 29.96 in 2.0 mi ESE 12.7 mph - N/A   Overcast
12:18 PM 46.4 °F 41.1 °F 46.4 °F 100% 29.91 in 3.0 mi SE 11.5 mph - N/A   Overcast
12:54 PM 48.9 °F - 48.0 °F 97% 29.91 in 5.0 mi SSE 10.4 mph - 0.00 in Rain Light Rain
1:54 PM 53.1 °F - 51.1 °F 93% 29.88 in 10.0 mi South 10.4 mph - 0.00 in   Overcast
2:54 PM 55.0 °F - 53.1 °F 93% 29.86 in 10.0 mi South 10.4 mph - N/A   Overcast
3:54 PM 55.9 °F - 54.0 °F 93% 29.85 in 10.0 mi South 11.5 mph - N/A   Overcast
4:04 PM 55.4 °F - 53.6 °F 94% 29.82 in 10.0 mi South 10.4 mph - N/A   Overcast
4:35 PM 55.4 °F - 55.4 °F 100% 29.82 in 10.0 mi South 9.2 mph - N/A   Overcast
4:54 PM 57.0 °F - 55.0 °F 93% 29.84 in 10.0 mi South 10.4 mph - N/A   Overcast
5:29 PM 57.2 °F - 55.4 °F 94% 29.81 in 10.0 mi South 11.5 mph 19.6 mph N/A   Overcast
5:54 PM 57.0 °F - 55.9 °F 96% 29.83 in 10.0 mi South 10.4 mph - 0.00 in   Overcast
6:13 PM 57.2 °F - 55.4 °F 94% 29.80 in 10.0 mi South 10.4 mph - 0.00 in Rain Light Rain
6:23 PM 57.2 °F - 55.4 °F 94% 29.79 in 10.0 mi South 9.2 mph - 0.01 in Rain Light Rain
6:36 PM 57.2 °F - 55.4 °F 94% 29.79 in 10.0 mi South 11.5 mph - 0.01 in Rain Light Rain
6:54 PM 57.0 °F - 55.9 °F 96% 29.81 in 10.0 mi South 12.7 mph - 0.01 in   Overcast
7:54 PM 57.9 °F - 55.9 °F 93% 29.80 in 10.0 mi South 13.8 mph - N/A   Overcast
8:20 PM 57.2 °F - 55.4 °F 94% 29.76 in 10.0 mi South 11.5 mph - N/A   Overcast
8:41 PM 57.2 °F - 55.4 °F 94% 29.75 in 10.0 mi South 11.5 mph - N/A   Overcast
8:49 PM 57.2 °F - 55.4 °F 94% 29.74 in 10.0 mi SSW 12.7 mph - N/A   Overcast
8:54 PM 57.9 °F - 55.9 °F 93% 29.76 in 10.0 mi South 10.4 mph - N/A   Overcast
9:52 PM 57.2 °F - 55.4 °F 94% 29.71 in 6.0 mi SW 16.1 mph - 0.08 in Rain Light Rain
9:54 PM 57.0 °F - 55.0 °F 93% 29.75 in 8.0 mi WSW 15.0 mph 24.2 mph 0.08 in Rain Light Rain
10:01 PM 55.4 °F - 53.6 °F 94% 29.74 in 7.0 mi West 18.4 mph - 0.01 in Rain Rain
10:54 PM 53.1 °F - 52.0 °F 96% 29.75 in 10.0 mi SSW 8.1 mph - 0.09 in Rain Light Rain
11:54 PM 53.1 °F - 53.1 °F 100% 29.75 in 10.0 mi SSW 12.7 mph - 0.08 in Rain Light Rain